Flag for U.S.A. Weather past 2 weeks in Plano, Texas, U.S.A.

Now
58 °F

Clear.


Feels Like: 58 °F
Forecast: 61 / 80 °F
Wind: No wind

Location: McKinney Municipal Airport

Current Time: Oct 22, 2014 at 5:41:07 AM

Latest Report: Oct 22, 2014 at 4:53 AM


Visibility: 9 mi

Pressure: 30.09 "Hg

Humidity: 87%

Dew point: 54 °F

Location of PlanoLocation

Historic Weather in Plano — Graph

°F

Plano temperature yesterday

Maximum temperature yesterday: 80 °F (at 2:53 PM)
Minimum temperature yesterday: 56 °F (at 7:53 AM)
Average temperature yesterday: 68 °F

Past Weeks' High & Low Weather Summary

 TemperatureHumidityPressure
High93 °F (Oct 7, 3:53 PM)100% (Oct 12, 8:53 PM)30.20 "Hg (Oct 12, 8:53 PM)
Low47 °F (Oct 15, 6:53 AM)22% (Oct 16, 2:53 PM)29.56 "Hg (Oct 13, 1:53 AM)
Average68 °F71%29.97 "Hg
* Reported Oct 7 3:53 AM — Oct 22 3:53 AM, Plano, Weather by CustomWeather, © 2014

Note: Actual official high and low records may vary slightly from our data, if they occured in-between our weather recording intervals... More about our weather records

Advertising

Plano weather history for previous 24 hours

 ConditionsComfort  
Time TempWeatherWind HumidityBarometerVisibility
3:53 AM
Oct 22
58 °FClear.No wind93%30.07 "Hg8 mi
2:53 AM59 °FClear.No wind90%30.07 "Hg9 mi
1:53 AM60 °FClear.No wind93%30.06 "Hg7 mi
12:53 AM61 °FClear.No wind87%30.06 "Hg9 mi
11:53 PM
Oct 21
63 °FClear.No wind87%30.07 "Hg10 mi
10:53 PM65 °FClear.No wind81%30.07 "Hg10 mi
9:53 PM66 °FClear.No wind78%30.07 "Hg10 mi
8:53 PM70 °FClear.5 mph71%30.06 "Hg10 mi
7:53 PM72 °FClear.6 mph64%30.05 "Hg10 mi
6:53 PM74 °FSunny.6 mph60%30.03 "Hg10 mi
5:53 PM77 °FSunny.9 mph52%30.03 "Hg10 mi
4:53 PM80 °FSunny.8 mph45%30.03 "Hg10 mi
3:53 PM79 °FSunny.6 mph48%30.03 "Hg10 mi
2:53 PM80 °FSunny.9 mph47%30.04 "Hg10 mi
1:53 PM78 °FSunny.8 mph50%30.06 "Hg10 mi
12:53 PM78 °FSunny.5 mph46%30.09 "Hg10 mi
11:53 AM76 °FSunny.3 mph54%30.11 "Hg10 mi
10:53 AM73 °FSunny.6 mph66%30.12 "Hg10 mi
9:53 AM68 °FSunny.No wind76%30.12 "Hg10 mi
8:53 AM60 °FFog.No wind93%30.11 "Hg5 mi
7:53 AM56 °FFog.No wind93%30.09 "Hg5 mi
6:53 AM57 °FClear.No wind93%30.07 "Hg7 mi
5:53 AM58 °FClear.No wind90%30.07 "Hg8 mi
Weather by CustomWeather, © 2014

See weather overviewHow to use our weather pages